Time,TemperatureF,DewpointF,PressureIn,WindDirection,WindDirectionDegrees,WindSpeedMPH,WindSpeedGustMPH,Humidity,HourlyPrecipIn,Conditions,Clouds,dailyrainin,SolarRadiationWatts/m^2,SoftwareType,DateUTC
2013-03-11 00:02:00,73.0,59.0,-100.00,East,88,2.0,7.0,62,0.00,,,0.00,0.000000,,2013-03-11 10:02:00,
2013-03-11 00:12:00,73.0,59.0,-100.00,East,88,2.0,7.0,62,0.00,,,0.00,0.000000,,2013-03-11 10:12:00,
2013-03-11 00:21:00,73.0,59.0,-100.00,East,88,2.0,7.0,62,0.00,,,0.00,0.000000,,2013-03-11 10:21:00,
2013-03-11 00:42:00,71.0,56.0,-100.00,East,87,3.0,7.0,59,0.00,,,0.00,0.000000,,2013-03-11 10:42:00,
2013-03-11 00:52:00,71.0,56.0,-100.00,East,87,3.0,7.0,59,0.00,,,0.00,0.000000,,2013-03-11 10:52:00,
2013-03-11 01:02:00,71.0,56.0,-100.00,East,87,3.0,7.0,59,0.00,,,0.00,0.000000,,2013-03-11 11:02:00,
2013-03-11 01:11:00,71.0,56.0,-100.00,East,87,3.0,7.0,59,0.00,,,0.00,0.000000,,2013-03-11 11:11:00,
2013-03-11 01:21:00,71.0,56.0,-100.00,East,87,3.0,7.0,59,0.00,,,0.00,0.000000,,2013-03-11 11:21:00,
2013-03-11 01:43:00,71.0,55.0,-100.00,East,80,3.0,6.0,58,0.00,,,-99.99,0.000000,,2013-03-11 11:43:00,
2013-03-11 01:53:00,71.0,55.0,-100.00,East,80,3.0,6.0,58,0.00,,,-99.99,0.000000,,2013-03-11 11:53:00,
2013-03-11 02:02:00,71.0,55.0,-100.00,East,80,3.0,6.0,58,0.00,,,-99.99,0.000000,,2013-03-11 12:02:00,
2013-03-11 02:11:00,71.0,55.0,-100.00,East,80,3.0,6.0,58,0.00,,,-99.99,0.000000,,2013-03-11 12:11:00,
2013-03-11 02:21:00,71.0,55.0,-100.00,East,80,3.0,6.0,58,0.00,,,-99.99,0.000000,,2013-03-11 12:21:00,
2013-03-11 02:43:00,71.0,52.0,-100.00,East,81,3.0,8.0,52,0.00,,,-99.99,0.000000,,2013-03-11 12:43:00,
2013-03-11 02:53:00,71.0,52.0,-100.00,East,81,3.0,8.0,52,0.00,,,-99.99,0.000000,,2013-03-11 12:53:00,
2013-03-11 03:02:00,71.0,52.0,-100.00,East,81,3.0,8.0,52,0.00,,,-99.99,0.000000,,2013-03-11 13:02:00,
2013-03-11 03:12:00,71.0,52.0,-100.00,East,81,3.0,8.0,52,0.00,,,-99.99,0.000000,,2013-03-11 13:12:00,
2013-03-11 03:21:00,71.0,52.0,-100.00,East,81,3.0,8.0,52,0.00,,,-99.99,0.000000,,2013-03-11 13:21:00,
2013-03-11 03:43:00,70.0,48.0,-100.00,East,86,4.0,9.0,46,0.00,,,-99.99,0.000000,,2013-03-11 13:43:00,
2013-03-11 03:52:00,70.0,48.0,-100.00,East,86,4.0,9.0,46,0.00,,,-99.99,0.000000,,2013-03-11 13:52:00,
2013-03-11 04:02:00,70.0,48.0,-100.00,East,86,4.0,9.0,46,0.00,,,-99.99,0.000000,,2013-03-11 14:02:00,
2013-03-11 04:12:00,70.0,48.0,-100.00,East,86,4.0,9.0,46,0.00,,,-99.99,0.000000,,2013-03-11 14:12:00,
2013-03-11 04:21:00,70.0,48.0,-100.00,East,86,4.0,9.0,46,0.00,,,-99.99,0.000000,,2013-03-11 14:21:00,
2013-03-11 04:22:00,70.0,51.0,-100.00,East,88,3.0,8.0,51,0.00,,,0.00,0.000000,,2013-03-11 14:22:00,
2013-03-11 04:43:00,70.0,51.0,-100.00,East,88,3.0,8.0,51,0.00,,,0.00,0.000000,,2013-03-11 14:43:00,
2013-03-11 04:53:00,70.0,51.0,-100.00,East,88,3.0,8.0,51,0.00,,,0.00,0.000000,,2013-03-11 14:53:00,
2013-03-11 05:02:00,70.0,51.0,-100.00,East,88,3.0,8.0,51,0.00,,,0.00,0.000000,,2013-03-11 15:02:00,
2013-03-11 05:12:00,70.0,51.0,-100.00,East,88,3.0,8.0,51,0.00,,,0.00,0.000000,,2013-03-11 15:12:00,
2013-03-11 05:43:00,69.0,48.0,-100.00,East,91,3.0,6.0,47,0.00,,,0.00,0.000000,,2013-03-11 15:43:00,
2013-03-11 05:53:00,69.0,48.0,-100.00,East,91,3.0,6.0,47,0.00,,,0.00,0.000000,,2013-03-11 15:53:00,
2013-03-11 06:02:00,69.0,48.0,-100.00,East,91,3.0,6.0,47,0.00,,,0.00,0.000000,,2013-03-11 16:02:00,
2013-03-11 06:12:00,69.0,48.0,-100.00,East,91,3.0,6.0,47,0.00,,,0.00,0.000000,,2013-03-11 16:12:00,
2013-03-11 06:21:00,69.0,48.0,-100.00,East,91,3.0,6.0,47,0.00,,,0.00,0.000000,,2013-03-11 16:21:00,
2013-03-11 06:22:00,69.0,47.0,-100.00,East,86,3.0,6.0,45,0.00,,,0.00,0.000000,,2013-03-11 16:22:00,
2013-03-11 06:43:00,69.0,47.0,-100.00,East,86,3.0,6.0,45,0.00,,,0.00,0.000000,,2013-03-11 16:43:00,
2013-03-11 06:52:00,69.0,47.0,-100.00,East,86,3.0,6.0,45,0.00,,,0.00,0.000000,,2013-03-11 16:52:00,
2013-03-11 07:02:00,69.0,47.0,-100.00,East,86,3.0,6.0,45,0.00,,,0.00,0.000000,,2013-03-11 17:02:00,
2013-03-11 07:13:00,69.0,47.0,-100.00,East,86,3.0,6.0,45,0.00,,,0.00,0.000000,,2013-03-11 17:13:00,
2013-03-11 07:42:00,69.0,48.0,-100.00,ENE,75,3.0,7.0,48,0.00,,,0.00,4.000000,,2013-03-11 17:42:00,
2013-03-11 07:53:00,69.0,48.0,-100.00,ENE,75,3.0,7.0,48,0.00,,,0.00,4.000000,,2013-03-11 17:53:00,
2013-03-11 08:02:00,69.0,48.0,-100.00,ENE,75,3.0,7.0,48,0.00,,,0.00,4.000000,,2013-03-11 18:02:00,
2013-03-11 08:11:00,69.0,48.0,-100.00,ENE,75,3.0,7.0,48,0.00,,,0.00,4.000000,,2013-03-11 18:11:00,
2013-03-11 08:21:00,69.0,48.0,-100.00,ENE,75,3.0,7.0,48,0.00,,,0.00,4.000000,,2013-03-11 18:21:00,
2013-03-11 08:22:00,74.0,49.0,-100.00,East,81,3.0,6.0,41,0.00,,,0.00,189.000000,,2013-03-11 18:22:00,
2013-03-11 08:53:00,74.0,49.0,-100.00,East,81,3.0,6.0,41,0.00,,,0.00,189.000000,,2013-03-11 18:53:00,
2013-03-11 09:02:00,74.0,49.0,-100.00,East,81,3.0,6.0,41,0.00,,,0.00,189.000000,,2013-03-11 19:02:00,
2013-03-11 09:12:00,74.0,49.0,-100.00,East,81,3.0,6.0,41,0.00,,,0.00,189.000000,,2013-03-11 19:12:00,
2013-03-11 09:43:00,78.0,62.0,-100.00,SSE,166,2.0,6.0,58,0.00,,,0.00,261.000000,,2013-03-11 19:43:00,
2013-03-11 09:52:00,78.0,62.0,-100.00,SSE,166,2.0,6.0,58,0.00,,,0.00,261.000000,,2013-03-11 19:52:00,
2013-03-11 10:02:00,78.0,62.0,-100.00,SSE,166,2.0,6.0,58,0.00,,,0.00,261.000000,,2013-03-11 20:02:00,
2013-03-11 10:12:00,78.0,62.0,-100.00,SSE,166,2.0,6.0,58,0.00,,,0.00,261.000000,,2013-03-11 20:12:00,
2013-03-11 10:21:00,78.0,62.0,-100.00,SSE,166,2.0,6.0,58,0.00,,,0.00,261.000000,,2013-03-11 20:21:00,
2013-03-11 10:44:00,78.0,62.0,-100.00,West,259,3.0,8.0,57,0.00,,,0.00,506.000000,,2013-03-11 20:44:00,
2013-03-11 10:53:00,78.0,62.0,-100.00,West,259,3.0,8.0,57,0.00,,,0.00,506.000000,,2013-03-11 20:53:00,
2013-03-11 11:02:00,78.0,62.0,-100.00,West,259,3.0,8.0,57,0.00,,,0.00,506.000000,,2013-03-11 21:02:00,
2013-03-11 11:12:00,78.0,62.0,-100.00,West,259,3.0,8.0,57,0.00,,,0.00,506.000000,,2013-03-11 21:12:00,
2013-03-11 11:21:00,78.0,62.0,-100.00,West,259,3.0,8.0,57,0.00,,,0.00,506.000000,,2013-03-11 21:21:00,
2013-03-11 11:44:00,79.0,64.0,-100.00,West,264,4.0,9.0,60,0.00,,,0.00,769.000000,,2013-03-11 21:44:00,
2013-03-11 11:53:00,79.0,64.0,-100.00,West,264,4.0,9.0,60,0.00,,,0.00,769.000000,,2013-03-11 21:53:00,
2013-03-11 12:02:00,79.0,64.0,-100.00,West,264,4.0,9.0,60,0.00,,,0.00,769.000000,,2013-03-11 22:02:00,
2013-03-11 12:12:00,79.0,64.0,-100.00,West,264,4.0,9.0,60,0.00,,,0.00,769.000000,,2013-03-11 22:12:00,
2013-03-11 12:21:00,79.0,64.0,-100.00,West,264,4.0,9.0,60,0.00,,,0.00,769.000000,,2013-03-11 22:21:00,
2013-03-11 12:43:00,80.0,64.0,-100.00,West,265,4.0,8.0,58,0.00,,,0.00,870.000000,,2013-03-11 22:43:00,
2013-03-11 12:53:00,80.0,64.0,-100.00,West,265,4.0,8.0,58,0.00,,,0.00,870.000000,,2013-03-11 22:53:00,
2013-03-11 13:02:00,80.0,64.0,-100.00,West,265,4.0,8.0,58,0.00,,,0.00,870.000000,,2013-03-11 23:02:00,
2013-03-11 13:12:00,80.0,64.0,-100.00,West,265,4.0,8.0,58,0.00,,,0.00,870.000000,,2013-03-11 23:12:00,
2013-03-11 13:21:00,80.0,64.0,-100.00,West,265,4.0,8.0,58,0.00,,,0.00,870.000000,,2013-03-11 23:21:00,
2013-03-11 13:22:00,80.0,62.0,-100.00,West,262,4.0,9.0,54,0.00,,,0.00,923.000000,,2013-03-11 23:22:00,
2013-03-11 13:43:00,80.0,62.0,-100.00,West,262,4.0,9.0,54,0.00,,,0.00,923.000000,,2013-03-11 23:43:00,
2013-03-11 13:53:00,80.0,62.0,-100.00,West,262,4.0,9.0,54,0.00,,,0.00,923.000000,,2013-03-11 23:53:00,
2013-03-11 14:02:00,80.0,62.0,-100.00,West,262,4.0,9.0,54,0.00,,,0.00,923.000000,,2013-03-12 00:02:00,
2013-03-11 14:12:00,80.0,62.0,-100.00,West,262,4.0,9.0,54,0.00,,,0.00,923.000000,,2013-03-12 00:12:00,
2013-03-11 14:43:00,81.0,66.0,-100.00,West,261,5.0,11.0,61,0.00,,,0.00,707.000000,,2013-03-12 00:43:00,
2013-03-11 14:53:00,81.0,66.0,-100.00,West,261,5.0,11.0,61,0.00,,,0.00,707.000000,,2013-03-12 00:53:00,
2013-03-11 15:02:00,81.0,66.0,-100.00,West,261,5.0,11.0,61,0.00,,,0.00,707.000000,,2013-03-12 01:02:00,
2013-03-11 15:11:00,81.0,66.0,-100.00,West,261,5.0,11.0,61,0.00,,,0.00,707.000000,,2013-03-12 01:11:00,
2013-03-11 15:21:00,81.0,66.0,-100.00,West,261,5.0,11.0,61,0.00,,,0.00,707.000000,,2013-03-12 01:21:00,
2013-03-11 15:42:00,79.0,64.0,-100.00,West,268,3.0,7.0,61,0.00,,,0.00,448.000000,,2013-03-12 01:42:00,
2013-03-11 15:52:00,79.0,64.0,-100.00,West,268,3.0,7.0,61,0.00,,,0.00,448.000000,,2013-03-12 01:52:00,
2013-03-11 16:02:00,79.0,64.0,-100.00,West,268,3.0,7.0,61,0.00,,,0.00,448.000000,,2013-03-12 02:02:00,
2013-03-11 16:12:00,79.0,64.0,-100.00,West,268,3.0,7.0,61,0.00,,,0.00,448.000000,,2013-03-12 02:12:00,
2013-03-11 16:21:00,79.0,64.0,-100.00,West,268,3.0,7.0,61,0.00,,,0.00,448.000000,,2013-03-12 02:21:00,
2013-03-11 16:43:00,79.0,67.0,-100.00,West,271,4.0,7.0,66,0.00,,,0.00,398.000000,,2013-03-12 02:43:00,
2013-03-11 16:52:00,79.0,67.0,-100.00,West,271,4.0,7.0,66,0.00,,,0.00,398.000000,,2013-03-12 02:52:00,
2013-03-11 17:02:00,79.0,67.0,-100.00,West,271,4.0,7.0,66,0.00,,,0.00,398.000000,,2013-03-12 03:02:00,
2013-03-11 17:12:00,79.0,67.0,-100.00,West,271,4.0,7.0,66,0.00,,,0.00,398.000000,,2013-03-12 03:12:00,
2013-03-11 17:21:00,79.0,67.0,-100.00,West,271,4.0,7.0,66,0.00,,,0.00,398.000000,,2013-03-12 03:21:00,
2013-03-11 17:22:00,76.0,70.0,-100.00,West,263,2.0,6.0,83,0.01,,,0.01,142.000000,,2013-03-12 03:22:00,
2013-03-11 17:42:00,76.0,70.0,-100.00,West,263,2.0,6.0,83,0.01,,,0.01,142.000000,,2013-03-12 03:42:00,
2013-03-11 18:02:00,76.0,70.0,-100.00,West,263,2.0,6.0,83,0.01,,,0.01,142.000000,,2013-03-12 04:02:00,
2013-03-11 18:12:00,76.0,70.0,-100.00,West,263,2.0,6.0,83,0.01,,,0.01,142.000000,,2013-03-12 04:12:00,
2013-03-11 18:43:00,72.0,65.0,-100.00,NE,43,3.0,9.0,80,0.01,,,0.02,27.000000,,2013-03-12 04:43:00,
2013-03-11 18:52:00,72.0,65.0,-100.00,NE,43,3.0,9.0,80,0.01,,,0.02,27.000000,,2013-03-12 04:52:00,
2013-03-11 19:02:00,72.0,65.0,-100.00,NE,43,3.0,9.0,80,0.01,,,0.02,27.000000,,2013-03-12 05:02:00,
2013-03-11 19:12:00,72.0,65.0,-100.00,NE,43,3.0,9.0,80,0.01,,,0.02,27.000000,,2013-03-12 05:12:00,
2013-03-11 19:21:00,72.0,65.0,-100.00,NE,43,3.0,9.0,80,0.01,,,0.02,27.000000,,2013-03-12 05:21:00,
2013-03-11 19:42:00,72.0,65.0,-100.00,East,91,3.0,8.0,79,0.00,,,0.02,9.000000,,2013-03-12 05:42:00,
2013-03-11 19:52:00,72.0,65.0,-100.00,East,91,3.0,8.0,79,0.00,,,0.02,9.000000,,2013-03-12 05:52:00,
2013-03-11 20:02:00,72.0,65.0,-100.00,East,91,3.0,8.0,79,0.00,,,0.02,9.000000,,2013-03-12 06:02:00,
2013-03-11 20:11:00,72.0,65.0,-100.00,East,91,3.0,8.0,79,0.00,,,0.02,9.000000,,2013-03-12 06:11:00,
2013-03-11 20:21:00,72.0,65.0,-100.00,East,91,3.0,8.0,79,0.00,,,0.02,9.000000,,2013-03-12 06:21:00,
2013-03-11 20:42:00,70.0,65.0,-100.00,ENE,75,2.0,7.0,85,0.04,,,0.06,0.000000,,2013-03-12 06:42:00,
2013-03-11 20:52:00,70.0,65.0,-100.00,ENE,75,2.0,7.0,85,0.04,,,0.06,0.000000,,2013-03-12 06:52:00,
2013-03-11 21:02:00,70.0,65.0,-100.00,ENE,75,2.0,7.0,85,0.04,,,0.06,0.000000,,2013-03-12 07:02:00,
2013-03-11 21:12:00,70.0,65.0,-100.00,ENE,75,2.0,7.0,85,0.04,,,0.06,0.000000,,2013-03-12 07:12:00,
2013-03-11 21:21:00,70.0,65.0,-100.00,ENE,75,2.0,7.0,85,0.04,,,0.06,0.000000,,2013-03-12 07:21:00,
2013-03-11 21:42:00,69.0,64.0,-100.00,East,86,2.0,5.0,84,0.00,,,0.06,0.000000,,2013-03-12 07:42:00,
2013-03-11 21:52:00,69.0,64.0,-100.00,East,86,2.0,5.0,84,0.00,,,0.06,0.000000,,2013-03-12 07:52:00,
2013-03-11 22:02:00,69.0,64.0,-100.00,East,86,2.0,5.0,84,0.00,,,0.06,0.000000,,2013-03-12 08:02:00,
2013-03-11 22:12:00,69.0,64.0,-100.00,East,86,2.0,5.0,84,0.00,,,0.06,0.000000,,2013-03-12 08:12:00,
2013-03-11 22:21:00,69.0,64.0,-100.00,East,86,2.0,5.0,84,0.00,,,0.06,0.000000,,2013-03-12 08:21:00,
2013-03-11 22:42:00,69.0,65.0,-100.00,East,86,2.0,5.0,86,0.00,,,0.06,0.000000,,2013-03-12 08:42:00,
2013-03-11 22:52:00,69.0,65.0,-100.00,East,86,2.0,5.0,86,0.00,,,0.06,0.000000,,2013-03-12 08:52:00,
2013-03-11 23:11:00,69.0,65.0,-100.00,East,86,2.0,5.0,86,0.00,,,0.06,0.000000,,2013-03-12 09:11:00,
2013-03-11 23:21:00,69.0,65.0,-100.00,East,86,2.0,5.0,86,0.00,,,0.06,0.000000,,2013-03-12 09:21:00,
2013-03-11 23:22:00,69.0,62.0,-100.00,East,100,2.0,6.0,78,0.00,,,0.06,0.000000,,2013-03-12 09:22:00,
2013-03-11 23:42:00,69.0,62.0,-100.00,East,100,2.0,6.0,78,0.00,,,0.06,0.000000,,2013-03-12 09:42:00,
2013-03-11 23:52:00,69.0,62.0,-100.00,East,100,2.0,6.0,78,0.00,,,0.06,0.000000,,2013-03-12 09:52:00,